Погода в Кузнецовском

Россия / Свердловская область     57°11′05″N   64°04′24″E
темп.,
°C
ветер,
м/с
пор.,
м/с
влажн.,
%
обл.,
%
осадки,
мм/ч
давл.,
гПа
погр.,
м
6 марта, сб
сб623:00−8з3990100 0.1 998209
02:00−10з3992100 0.0 999265
05:00−12з4129165 0.0 1002409
08:00−13з514860 0.0 1004444
11:00−8з611830 0.0 1005838
14:00−7зюз598581 0.1 10051074
17:00−6з5108090 0.4 10051445
20:00−10з41186100 0.2 1007675
7 марта, вс
вс723:00−14з4118963 0.2 1009291
02:00−18з34940 0.0 101183
05:00−19зюз23950 0.0 101228
08:00−20ююз23950 0.0 101251
11:00−13юз24910 0.0 1012261
14:00−9ююз238558 0.0 1010618
17:00−9ю128879 0.1 1008383
20:00−12ссз3596100 0.1 1006145
8 марта, пн
пн823:00−15ссз3596100 0.2 1005134
02:00−19сз369864 0.0 100597
05:00−20зсз369952 0.0 1007104
08:00−21з359724 0.0 100797
11:00−14юз359112 0.0 1008272
14:00−11ююз478581 0.0 1007550
17:00−11ю598790 0.0 1006698
20:00−12ю4109495 0.1 1005355
9 марта, вт
вт923:00−11ю4119596 0.1 1004293
02:00−11ююз399482 0.0 1003233
05:00−9ю4109491 0.0 1003348
08:00−9ю4119499 0.0 1002348
11:00−4ююз61094100 0.8 1000922
14:00−3з5782100 1.2 10011078
17:00−5з4887100 1.9 1003850
20:00−10з239033 0.1 100537
10 марта, ср
ср1023:00−14зюз129417 0.1 100820
02:00−15юз129539 0.0 100820
05:00−15юз229746 0.0 100829
08:00−17юз239795 0.0 100884
11:00−11зюз249194 0.0 1007286
14:00−8з2385100 0.0 1007661
17:00−9зсз2488100 0.1 1006598
20:00−13сз379697 0.1 1007217